Regional Weather Roundup
Issued by NWS

Home | Current Version | Previous Version | Graphics & Text | Print | Product List | Glossary Off
Versions: 1 2 3 4 5 6 7 8 9 10 11 12 13 14 15 16 17 18 19 20 21 22 23 24 25 26 27 28 29 30 31 32 33 34 35 36 37 38 39 40 41 42 43 44 45 46 47 48 49 50

419
ASUS45 KABQ 231101
RWRNM
NEW MEXICO REGIONAL WEATHER ROUNDUP
NATIONAL WEATHER SERVICE ALBUQUERQUE NM
500 AM MDT TUE MAY 23 2017

NOTE: "FAIR" MEANS FEW OR NO CLOUDS BELOW 12,000 FEET AGL WITH NO
       SIGNIFICANT WEATHER OR OBSTRUCTIONS TO VISION.

      THIS PRODUCT IS RELEASED AS TWO VERSIONS.  ONE VERSION NEAR
      THE TOP OF THE HOUR CONTAINING PRELIMINARY DATA FROM ALBUQUERQUE
      AND OTHER STATIONS.  A FINAL VERSION WITH ADDITIONAL DATA IS
      ISSUED ABOUT 10 MINUTES AFTER THE HOUR.

NMZ501-503-504-510>518-231200-
NORTHWEST PLATEAU/NORTHCENTRAL MOUNTAINS

CITY           SKY/WX    TMP DP  RH WIND       PRES   REMARKS
FARMINGTON     FAIR      48  30  49 E7        30.12S
LOS ALAMOS     CLOUDY    49  39  70 S9        30.20S
SANTA FE       MOCLDY    47  41  80 S9        30.16S
TAOS           CLOUDY    48  27  43 NE8       30.19F
ANGEL FIRE     LGT RAIN  35  33  92 N6        30.25S WCI  30

$$
NMZ402-403-502-505>509-231200-
WESTCENTRAL MOUNTAINS/SOUTHWEST MOUNTAINS

CITY           SKY/WX    TMP DP  RH WIND       PRES   REMARKS
GALLUP         FAIR      35  24  64 CALM      30.20S
GRANTS         FAIR      40  22  47 NW6       30.20S
SILVER CITY    FAIR      55  18  24 N3        30.12R

$$
NMZ407-409-411-412-231200-
SOUTHERN DESERTS

CITY           SKY/WX    TMP DP  RH WIND       PRES   REMARKS
DEMING         FAIR      67  17  14 N8        30.04R
LAS CRUCES     FAIR      62  21  20 W8        30.04R
HOLLOMAN AFB   CLEAR     55  37  50 NW8       30.04R
ALAMOGORDO     FAIR      54  19  26 E3        30.02R
T OR C         FAIR      60  18  19 NW12      30.06F

$$
NMZ519>523-231200-
CENTRAL VALLEYS/CENTRAL HIGHLANDS

CITY           SKY/WX    TMP DP  RH WIND       PRES   REMARKS
ALBUQUERQUE    FAIR      56  45  66 E17       30.11S
MORIARTY ARPT  MOCLDY    48  43  81 CALM      30.20F
CLINES CORNERS CLOUDY    44  37  76 E15       30.21S
BELEN          FAIR      48  28  45 CALM      30.11S
SOCORRO        FAIR      53  22  30 NW8       30.09R

$$
NMZ524>526-539-540-231200-
SOUTHCENTRAL MOUNTAINS

CITY           SKY/WX    TMP DP  RH WIND       PRES   REMARKS
RUIDOSO        NOT AVBL

$$
NMZ527>531-231200-
NORTHEAST HIGHLANDS/NORTHEAST PLAINS

CITY           SKY/WX    TMP DP  RH WIND       PRES   REMARKS
LAS VEGAS      CLOUDY    40  37  89 NE13      30.21F WCI  32
RATON          CLOUDY    40  31  70 N12       30.22S WCI  33
CLAYTON        CLOUDY    42  38  85 NW13      30.17S

$$
NMZ532>537-231200-
EASTCENTRAL PLAINS

CITY           SKY/WX    TMP DP  RH WIND       PRES   REMARKS
SANTA ROSA     CLOUDY    47  40  76 N15       30.17S
TUCUMCARI      CLOUDY    50  44  80 N12       30.16R
CANNON AFB     MOCLDY    47  47 100 N23G31    30.13S
CLOVIS AIRPORT CLOUDY    46  41  81 N16       30.13S

$$
NMZ028-029-538-231200-
SOUTHEAST PLAINS

CITY           SKY/WX    TMP DP  RH WIND       PRES   REMARKS
ROSWELL        CLOUDY    59  50  72 N14       30.08R
ARTESIA        CLOUDY    57  55  94 N13       30.06R
CARLSBAD       NOT AVBL
HOBBS          MOCLDY    57  57 100 N9        30.06R


$$




USA.gov is the U.S. government's official web portal to all federal, state and local government web resources and services.